Location: Fort Collins
(40.5850°N, 105.0840°W)
Time: 13:22:53
(UTC-06:00)

Cosmos 2297 Rocket - Visible Passes

Search period start: 28 June 2017 00:00
Search period end: 08 July 2017 00:00
Orbit: 838 x 845 km, 71.0° (Epoch: 27 June)

Date Brightness Start Highest point End Pass type
(mag) Time Alt. Az. Time Alt. Az. Time Alt. Az.
28 Jun 5.2 21:50:10 10° W 21:53:57 18° NW 21:57:47 10° N visible
29 Jun 5.3 21:34:53 10° W 21:38:49 19° NW 21:42:46 10° N visible
30 Jun 4.4 04:43:16 10° N 04:48:18 32° ENE 04:53:18 10° ESE visible
30 Jun 5.3 21:19:37 10° W 21:23:41 20° NW 21:27:45 10° N visible
01 Jul 4.4 04:28:13 10° N 04:33:11 30° ENE 04:38:07 10° ESE visible
01 Jul 5.3 21:04:22 10° W 21:08:32 21° NW 21:12:45 10° N visible
02 Jul 4.4 04:13:10 10° N 04:18:03 29° NE 04:22:55 10° ESE visible
03 Jul 4.4 03:58:08 10° N 04:02:55 27° NE 04:07:42 10° ESE visible
04 Jul 4.5 03:43:05 10° N 03:47:48 26° NE 03:52:29 10° ESE visible
05 Jul 4.5 03:28:02 10° N 03:32:41 25° NE 03:37:16 10° ESE visible
06 Jul 4.5 03:13:01 10° N 03:17:33 24° NE 03:22:03 10° ESE visible
06 Jul 2.4 04:56:25 10° NNW 05:01:54 52° WSW 05:07:21 10° S visible
07 Jul 4.5 02:57:59 10° N 03:02:25 23° NE 03:06:49 10° ESE visible
07 Jul 2.3 04:41:17 10° NNW 04:46:48 55° WSW 04:52:18 10° S visible
